Worcester, MA

9:52 PM EDT on March 26, 2017 (GMT -0400)
Worcester Regional

Weather History for KORH - July, 2013

Change the Weather History Date:

Monday, July 1, 2013

  Actual Average Record
Temperature  
Mean Temperature 73 °F 69 °F  
Max Temperature 76 °F 78 °F 94 °F (1964)
Min Temperature 69 °F 60 °F 42 °F (1936)
Degree Days  
Heating Degree Days 0 1  
Month to date heating degree days 0 1  
Since 1 June heating degree days 67 84  
Since 1 July heating degree days 0 1  
Cooling Degree Days 8 5  
Month to date cooling degree days 8 5  
Year to date cooling degree days 135 111  
Since 1 June cooling degree days 111 89  
Growing Degree Days 22 (Base 50)    
Moisture  
Dew Point 70 °F    
Average Humidity 94    
Maximum Humidity 100    
Minimum Humidity 87    
Precipitation  
Precipitation 0.33 in 0.12 in 2.08 in (1915)
Month to date precipitation 0.33 0.12  
Year to date precipitation 27.20 23.54  
Sea Level Pressure  
Sea Level Pressure 30.04 in    
Wind  
Wind Speed 8 mph (SSW)    
Max Wind Speed 16 mph    
Max Gust Speed 21 mph    
Visibility 8 miles    
Events Rain    
T = Trace of Precipitation, MM = Missing Value Source: NWS Daily Summary

Daily Weather History Graph

Daily Weather History Graph

Search for Another Location

Airport or City:

Trip Planner

Search our weather history database for the weather conditions in past years. The results will help you decide how hot, cold, wet, or windy it might be!

Date:

Astronomy

Jul. 01, 2013 Rise Set
Actual Time 5:14 AM EDT 8:27 PM EDT
Civil Twilight 4:40 AM EDT 9:02 PM EDT
Nautical Twilight 3:55 AM EDT 9:46 PM EDT
Astronomical Twilight 3:02 AM EDT 10:40 PM EDT
Moon 12:47 AM EDT (7/1) 2:36 PM EDT (7/1)
Length of Visible Light 16h 21m
Length of Day
15h 12m
Waning Crescent, 35% of the Moon is Illuminated
Jul 1
Waning Crescent
Jul 8
New
Jul 15
First Quarter
Jul 22
Full
Jul 29
Last Quarter

Hourly Weather History & Observations

Time (EDT) Temp. Dew Point Humidity Pressure Visibility Wind Dir Wind Speed Gust Speed Precip Events Conditions
12:13 AM 70.0 °F 68.0 °F 93% 29.97 in 10.0 mi SSW 9.2 mph - N/A   Overcast
12:43 AM 70.0 °F 69.1 °F 97% 29.98 in 4.0 mi SSW 6.9 mph - N/A   Overcast
12:54 AM 69.1 °F 69.1 °F 100% 29.96 in 3.0 mi SSW 8.1 mph - N/A   Overcast
1:54 AM 70.0 °F 69.1 °F 97% 29.96 in 7.0 mi SW 8.1 mph - N/A   Overcast
2:54 AM 70.0 °F 69.1 °F 97% 29.96 in 10.0 mi SW 6.9 mph - N/A   Overcast
3:01 AM 70.0 °F 69.1 °F 97% 29.98 in 10.0 mi WSW 5.8 mph - N/A   Overcast
3:13 AM 70.0 °F 68.0 °F 93% 29.98 in 10.0 mi SW 6.9 mph - N/A   Overcast
3:54 AM 69.1 °F 69.1 °F 100% 29.96 in 3.0 mi WSW 5.8 mph - N/A   Overcast
4:10 AM 69.1 °F 69.1 °F 100% 29.98 in 3.0 mi SW 5.8 mph - 0.00 in Rain Light Rain
4:54 AM 70.0 °F 69.1 °F 97% 29.98 in 10.0 mi SW 5.8 mph - 0.01 in   Overcast
5:54 AM 70.0 °F 69.1 °F 97% 29.99 in 9.0 mi SSW 6.9 mph - N/A   Overcast
6:36 AM 70.0 °F 69.1 °F 97% 30.01 in 10.0 mi South 6.9 mph - N/A   Overcast
6:54 AM 70.0 °F 69.1 °F 97% 30.00 in 10.0 mi South 5.8 mph - N/A   Overcast
7:05 AM 70.0 °F 70.0 °F 100% 30.02 in 2.5 mi South 5.8 mph - N/A   Overcast
7:54 AM 70.0 °F 69.1 °F 97% 30.01 in 2.5 mi SSW 8.1 mph - N/A   Overcast
8:07 AM 71.1 °F 69.1 °F 93% 30.02 in 9.0 mi SW 9.2 mph - N/A   Overcast
8:54 AM 71.1 °F 70.0 °F 96% 30.03 in 8.0 mi South 6.9 mph - N/A   Overcast
9:23 AM 72.0 °F 69.1 °F 91% 30.04 in 10.0 mi South 8.1 mph - N/A   Overcast
9:34 AM 72.0 °F 69.1 °F 91% 30.04 in 10.0 mi South 5.8 mph - N/A   Overcast
9:41 AM 73.0 °F 69.1 °F 87% 30.04 in 10.0 mi South 5.8 mph - N/A   Overcast
9:54 AM 73.0 °F 70.0 °F 90% 30.02 in 10.0 mi SSE 5.8 mph - N/A   Overcast
10:38 AM 73.0 °F 70.0 °F 90% 30.04 in 10.0 mi SSE 8.1 mph - N/A   Overcast
10:54 AM 73.0 °F 70.0 °F 90% 30.03 in 9.0 mi South 8.1 mph - 0.00 in Rain Light Rain
11:00 AM 73.9 °F 71.1 °F 91% 30.04 in 10.0 mi South 6.9 mph - 0.00 in Rain Light Rain
11:07 AM 73.9 °F 71.1 °F 91% 30.04 in 10.0 mi South 8.1 mph - 0.00 in   Overcast
11:54 AM 73.9 °F 71.1 °F 91% 30.03 in 10.0 mi South 6.9 mph - 0.00 in   Overcast
12:54 PM 73.9 °F 71.1 °F 91% 30.02 in 10.0 mi South 4.6 mph - 0.00 in Rain Light Rain
1:01 PM 73.9 °F 71.1 °F 91% 30.03 in 10.0 mi South 5.8 mph - 0.00 in Rain Light Rain
1:20 PM 75.0 °F 71.1 °F 87% 30.03 in 2.0 mi SSE 8.1 mph - 0.00 in   Overcast
1:29 PM 73.9 °F 72.0 °F 93% 30.03 in 1.0 mi SSE 11.5 mph - 0.20 in Rain Heavy Rain
1:34 PM 75.0 °F 72.0 °F 90% 30.02 in 2.0 mi South 11.5 mph - 0.20 in Rain Light Rain
1:54 PM 73.9 °F 72.0 °F 93% 30.02 in 2.0 mi SSW 10.4 mph - 0.23 in Rain Light Rain
1:59 PM 73.9 °F 72.0 °F 93% 30.03 in 10.0 mi SSW 10.4 mph - 0.00 in Rain Light Rain
2:13 PM 73.9 °F 72.0 °F 93% 30.03 in 10.0 mi SSW 8.1 mph - 0.00 in Rain Light Rain
2:25 PM 73.9 °F 72.0 °F 93% 30.03 in 2.5 mi South 10.4 mph - 0.01 in Rain Light Rain
2:30 PM 73.0 °F 72.0 °F 96% 30.03 in 1.8 mi SSW 10.4 mph - 0.07 in Rain Heavy Rain
2:36 PM 73.9 °F 72.0 °F 93% 30.03 in 4.0 mi SSW 10.4 mph - 0.08 in Rain Light Rain
2:41 PM 73.9 °F 72.0 °F 93% 30.03 in 10.0 mi SW 6.9 mph - 0.08 in Rain Light Rain
2:54 PM 73.9 °F 72.0 °F 93% 30.02 in 9.0 mi SW 6.9 mph - 0.08 in Rain Light Rain
3:10 PM 73.9 °F 73.0 °F 97% 30.04 in 10.0 mi SSW 8.1 mph - 0.00 in Rain Light Rain
3:27 PM 75.0 °F 73.0 °F 94% 30.04 in 10.0 mi SSW 9.2 mph - 0.01 in Rain Light Rain
3:54 PM 75.0 °F 72.0 °F 90% 30.03 in 10.0 mi SW 16.1 mph - 0.01 in   Mostly Cloudy
4:11 PM 75.0 °F 72.0 °F 90% 30.04 in 10.0 mi SW 13.8 mph - 0.00 in Rain Light Rain
4:54 PM 75.0 °F 72.0 °F 90% 30.03 in 10.0 mi SW 6.9 mph - 0.00 in   Mostly Cloudy
5:15 PM 75.0 °F 72.0 °F 90% 30.04 in 10.0 mi SSW 10.4 mph - N/A   Mostly Cloudy
5:34 PM 73.9 °F 71.1 °F 91% 30.04 in 10.0 mi SSW 10.4 mph - N/A   Mostly Cloudy
5:45 PM 73.9 °F 72.0 °F 93% 30.04 in 10.0 mi SSW 9.2 mph - N/A   Overcast
5:54 PM 73.9 °F 72.0 °F 93% 30.03 in 10.0 mi SSW 9.2 mph - N/A   Overcast
5:57 PM 73.9 °F 71.1 °F 91% 30.04 in 10.0 mi SSW 9.2 mph - N/A   Overcast
6:11 PM 73.9 °F 72.0 °F 93% 30.04 in 10.0 mi South 8.1 mph - N/A   Overcast
6:14 PM 73.9 °F 72.0 °F 93% 30.04 in 10.0 mi South 8.1 mph - N/A   Overcast
6:54 PM 73.9 °F 71.1 °F 91% 30.04 in 10.0 mi SSW 8.1 mph - N/A   Mostly Cloudy
7:06 PM 73.9 °F 71.1 °F 91% 30.06 in 10.0 mi SSW 8.1 mph - N/A   Overcast
7:25 PM 73.0 °F 71.1 °F 93% 30.07 in 10.0 mi SSW 9.2 mph - 0.00 in Rain Light Rain
7:54 PM 73.0 °F 70.0 °F 90% 30.06 in 10.0 mi SSW 11.5 mph - 0.00 in Rain Light Rain
8:07 PM 73.0 °F 70.0 °F 90% 30.08 in 10.0 mi SSW 11.5 mph - 0.00 in Rain Light Rain
8:32 PM 72.0 °F 70.0 °F 93% 30.08 in 10.0 mi SSW 8.1 mph - 0.00 in   Overcast
8:54 PM 72.0 °F 70.0 °F 93% 30.08 in 10.0 mi SSW 8.1 mph - 0.00 in   Mostly Cloudy
9:10 PM 72.0 °F 70.0 °F 93% 30.09 in 10.0 mi SSW 8.1 mph - N/A   Overcast
9:18 PM 72.0 °F 70.0 °F 93% 30.09 in 10.0 mi SSW 5.8 mph - N/A   Overcast
9:25 PM 72.0 °F 70.0 °F 93% 30.09 in 10.0 mi South 9.2 mph - N/A   Overcast
9:44 PM 71.1 °F 70.0 °F 96% 30.10 in 10.0 mi South 10.4 mph - N/A   Overcast
9:54 PM 72.0 °F 69.1 °F 91% 30.09 in 10.0 mi SSW 10.4 mph - N/A   Overcast
10:15 PM 72.0 °F 69.1 °F 91% 30.11 in 10.0 mi SSW 12.7 mph - N/A   Overcast
10:31 PM 71.1 °F 69.1 °F 93% 30.11 in 10.0 mi SSW 15.0 mph 20.7 mph N/A   Overcast
10:54 PM 72.0 °F 69.1 °F 91% 30.10 in 10.0 mi SW 11.5 mph - N/A   Overcast
11:05 PM 71.1 °F 69.1 °F 93% 30.11 in 10.0 mi SW 10.4 mph - N/A   Overcast
11:22 PM 71.1 °F 69.1 °F 93% 30.11 in 10.0 mi SSW 11.5 mph - N/A   Overcast
11:54 PM 71.1 °F 69.1 °F 93% 30.10 in 10.0 mi SSW 10.4 mph - N/A   Overcast